GW3945 Weather Reports


time (UTC)temp
F
wind
direction
speed
knots
gust
knots
rain 1hr
in
rain 24hr
in
rain mn
in
humidity
%
barometer
mb
20260831072846 73 222 0.0 0.0 0.00 0.00 0.00 96 1017.1
20260831072341 73 222 0.0 0.0 0.00 0.00 0.00 96 1017.0
20260831071838 73 225 0.0 0.0 0.00 0.00 0.00 96 1017.0
20260831071336 73 223 0.0 0.0 0.00 0.00 0.00 96 1017.0
20260831070832 73 223 0.0 0.0 0.00 0.00 0.00 96 1017.3
20260831070330 73 223 0.0 0.0 0.00 0.00 0.00 96 1017.3
20260831065830 73 223 0.0 0.0 0.00 0.00 0.00 96 1017.0
20260831065328 74 223 0.0 0.0 0.00 0.00 0.00 95 1017.0
20260831064823 74 223 0.0 0.0 0.00 0.00 0.00 95 1017.2
20260831064319 74 223 0.0 0.0 0.00 0.00 0.00 95 1017.3
20260831063815 74 223 0.0 0.0 0.00 0.00 0.00 95 1017.2
20260831063309 74 239 0.0 0.0 0.00 0.00 0.00 95 1017.2
20260831062809 74 226 0.0 0.0 0.00 0.00 0.00 95 1017.2
20260831062305 74 226 0.0 0.0 0.00 0.00 0.00 95 1017.3
20260831061802 74 226 0.0 0.0 0.00 0.00 0.00 95 1017.1
20260831061257 74 226 0.0 0.0 0.00 0.00 0.00 95 1017.1
20260831060754 74 226 0.0 0.0 0.00 0.00 0.00 95 1017.2
20260831060253 74 226 0.0 0.0 0.00 0.00 0.00 94 1017.3
20260831055752 75 226 0.0 0.0 0.00 0.00 0.00 94 1017.3
20260831055247 75 226 0.0 0.0 0.00 0.00 0.00 94 1017.2
20260831054743 74 226 0.0 0.0 0.00 0.00 0.00 94 1017.3
20260831054238 75 225 0.0 0.0 0.00 0.00 0.00 94 1017.2
20260831053736 75 225 0.0 0.0 0.00 0.00 0.00 94 1017.5
20260831053235 75 226 0.0 0.0 0.00 0.00 0.00 93 1017.4
20260831052729 75 238 0.0 0.0 0.00 0.00 0.00 93 1017.2
20260831052223 75 233 0.0 0.0 0.00 0.00 0.00 94 1017.3
20260831051721 75 231 0.0 0.0 0.00 0.00 0.00 94 1017.2
20260831051220 75 231 0.0 0.0 0.00 0.00 0.00 94 1017.2
20260831050715 75 228 0.0 0.0 0.00 0.00 0.00 93 1017.5
20260831050214 75 229 0.0 0.0 0.00 0.00 0.00 93 1017.2
20260831045709 75 226 0.0 0.0 0.00 0.00 0.00 93 1017.2
20260831045204 75 226 0.0 0.0 0.00 0.00 0.00 92 1017.5
20260831044658 75 225 0.0 0.0 0.00 0.00 0.00 93 1017.2
20260831044153 75 227 0.0 0.0 0.00 0.00 0.00 92 1017.2
20260831043649 75 226 0.0 0.0 0.00 0.00 0.00 93 1017.2
20260831043144 75 224 0.0 0.0 0.00 0.00 0.00 93 1017.1
20260831042643 75 224 0.0 0.0 0.00 0.00 0.00 93 1017.4
20260831042138 76 224 0.0 0.0 0.00 0.00 0.00 93 1017.4
20260831041633 76 224 0.0 0.0 0.00 0.00 0.00 93 1017.3
20260831041132 76 225 0.0 0.0 0.00 0.00 0.00 92 1017.3
20260831040622 76 225 0.0 0.0 0.00 0.00 0.00 92 1017.5
20260831040121 76 225 0.0 0.0 0.00 0.00 0.00 92 1017.2
20260831035620 76 225 0.0 0.0 0.00 0.00 0.00 91 1017.3
20260831035114 76 224 0.0 0.0 0.00 0.00 0.00 91 1017.3
20260831034614 76 225 0.0 0.0 0.00 0.00 0.00 90 1017.5
20260831034109 77 225 0.0 0.0 0.00 0.00 0.00 90 1017.7
20260831033605 77 225 0.0 0.0 0.00 0.00 0.00 90 1017.7
20260831033100 77 226 0.0 0.0 0.00 0.00 0.00 89 1017.5
20260831032559 77 228 0.0 0.0 0.00 0.00 0.00 88 1017.4
20260831032055 77 233 0.0 0.0 0.00 0.00 0.00 88 1017.4
20260831031554 77 227 0.0 0.0 0.00 0.00 0.00 88 1017.7
20260831031054 77 227 0.0 0.0 0.00 0.00 0.00 88 1017.3
20260831030553 78 227 0.0 0.0 0.00 0.00 0.00 88 1017.4
20260831030052 77 227 0.0 0.0 0.00 0.00 0.00 87 1017.3
20260831025551 78 227 0.0 0.0 0.00 0.00 0.00 88 1017.3
20260831025046 78 227 0.0 0.0 0.00 0.00 0.00 87 1017.2
20260831024542 79 227 0.0 0.0 0.00 0.00 0.00 85 1017.0
20260831024041 79 227 0.0 0.0 0.00 0.00 0.00 84 1017.3
20260831023539 80 227 0.0 0.0 0.00 0.00 0.00 84 1017.0
20260831023034 80 227 0.0 0.0 0.00 0.00 0.00 80 1017.2
20260831022533 80 227 0.0 0.0 0.00 0.00 0.00 79 1017.0
20260831022029 80 227 0.0 0.0 0.00 0.00 0.00 79 1017.1
20260831021527 80 227 0.0 0.0 0.00 0.00 0.00 79 1017.0
20260831021024 80 227 0.0 0.0 0.00 0.00 0.00 80 1017.1
20260831020519 80 227 0.0 0.0 0.00 0.00 0.00 79 1017.0
20260831020013 80 227 0.0 0.0 0.00 0.00 0.00 79 1016.9
20260831015509 80 225 0.0 0.0 0.00 0.00 0.00 80 1017.0
20260831015004 80 226 0.0 0.0 0.00 0.00 0.00 82 1016.8
20260831014458 80 226 0.0 0.0 0.00 0.00 0.00 81 1016.8
20260831013953 80 226 0.0 0.0 0.00 0.00 0.00 80 1016.8
20260831013449 81 226 0.0 0.0 0.00 0.00 0.00 78 1016.7
20260831012944 81 226 0.0 0.0 0.00 0.00 0.00 77 1016.8
20260831012439 81 226 0.0 0.0 0.00 0.00 0.00 77 1016.8
20260831011938 81 226 0.0 0.0 0.00 0.00 0.00 77 1016.7
20260831011433 82 224 0.0 0.0 0.00 0.00 0.00 76 1016.6
20260831010929 82 224 0.0 0.0 0.00 0.00 0.00 76 1016.8
20260831010424 82 224 0.0 0.0 0.00 0.00 0.00 76 1016.6
20260831005919 82 224 0.0 0.0 0.00 0.00 0.00 76 1016.5
20260831005415 82 221 0.0 0.0 0.00 0.00 0.00 75 1016.5
20260831004909 82 221 0.0 0.0 0.00 0.00 0.00 75 1016.5
20260831004406 82 220 0.0 0.0 0.00 0.00 0.00 75 1016.4
20260831003901 82 218 0.0 0.0 0.00 0.00 0.00 75 1016.3
20260831003357 82 219 0.0 0.0 0.00 0.00 0.00 74 1016.4
20260831002857 83 224 0.0 0.0 0.00 0.00 0.00 75 1016.2
20260831002356 83 216 0.0 0.0 0.00 0.00 0.00 75 1016.4
20260831001851 83 218 0.0 0.0 0.00 0.00 0.00 73 1016.3
20260831001351 83 221 0.0 0.0 0.00 0.00 0.00 74 1016.6
20260831000849 83 213 0.0 0.0 0.00 0.00 0.00 76 1016.5
20260831000344 83 209 0.0 0.0 0.00 0.00 0.00 78 1016.6
20260830235842 83 203 0.0 0.0 0.00 0.00 0.00 78 1016.7
20260830235337 83 213 0.0 0.0 0.00 0.00 0.00 81 1016.5
20260830234833 84 192 0.0 0.0 0.00 0.00 0.00 85 1016.7
20260830234328 85 213 0.0 0.0 0.00 0.00 0.00 83 1016.7
20260830233824 86 228 0.0 0.0 0.00 0.00 0.00 77 1016.2
20260830233319 86 228 0.0 0.0 0.00 0.00 0.00 75 1016.4
20260830232815 86 228 0.0 0.0 0.00 0.00 0.00 70 1016.3
20260830232310 85 228 0.0 0.0 0.00 0.00 0.00 71 1016.1
20260830231806 85 228 0.0 0.0 0.00 0.00 0.00 72 1016.4
20260830231301 85 228 0.0 0.0 0.00 0.00 0.00 76 1016.1
20260830230755 84 228 0.0 0.0 0.00 0.00 0.00 80 1016.2
20260830230251 85 228 0.0 0.0 0.00 0.00 0.00 83 1016.4
20260830225750 85 228 0.0 0.0 0.00 0.00 0.00 81 1016.2
20260830225245 85 228 0.0 0.0 0.00 0.00 0.00 80 1016.2
20260830224744 86 228 0.0 0.0 0.00 0.00 0.00 79 1016.3
20260830224240 86 228 0.0 0.0 0.00 0.00 0.00 77 1016.3
20260830223736 86 228 0.0 0.0 0.00 0.00 0.00 75 1016.3
20260830223232 86 228 0.0 0.0 0.00 0.00 0.00 77 1016.2
20260830222726 86 228 0.0 0.0 0.00 0.00 0.00 78 1016.2
20260830222221 86 228 0.0 0.0 0.00 0.00 0.00 76 1016.1
20260830221717 87 228 0.0 0.0 0.00 0.00 0.00 69 1016.0
20260830221214 87 228 0.0 0.0 0.00 0.00 0.00 67 1016.0
20260830220703 88 228 0.0 0.0 0.00 0.00 0.00 67 1016.2
20260830220202 89 228 0.0 0.0 0.00 0.00 0.00 62 1016.3
20260830215701 89 229 0.0 0.0 0.00 0.00 0.00 61 1016.3
20260830215155 89 227 0.0 0.0 0.00 0.00 0.00 61 1016.2
20260830214651 88 227 0.0 0.0 0.00 0.00 0.00 64 1016.2
20260830214151 88 227 0.0 0.0 0.00 0.00 0.00 65 1016.2
20260830213650 88 227 0.0 0.0 0.00 0.00 0.00 66 1016.0
20260830213146 88 227 0.0 0.0 0.00 0.00 0.00 67 1016.1
20260830212642 88 227 0.0 0.0 0.00 0.00 0.00 67 1016.3
20260830212136 88 226 0.0 0.0 0.00 0.00 0.00 67 1016.3
20260830211632 88 215 0.0 0.0 0.00 0.00 0.00 65 1016.3
20260830211131 88 215 0.0 0.0 0.00 0.00 0.00 65 1016.4
20260830210627 88 215 0.0 0.0 0.00 0.00 0.00 65 1016.2
20260830210126 89 215 0.0 0.0 0.00 0.00 0.00 65 1016.3
20260830205623 89 215 0.0 0.0 0.00 0.00 0.00 65 1016.4
20260830205119 88 215 0.0 0.0 0.00 0.00 0.00 65 1016.4
20260830204618 89 215 0.0 0.0 0.00 0.00 0.00 65 1016.5
20260830204117 88 209 0.0 0.0 0.00 0.00 0.00 65 1016.6
20260830203614 89 205 0.0 0.0 0.00 0.00 0.00 65 1016.7
20260830203113 90 209 0.0 0.0 0.00 0.00 0.00 63 1016.6
20260830202608 89 211 0.0 0.0 0.00 0.00 0.00 63 1016.6
20260830202103 89 192 0.0 0.0 0.00 0.00 0.00 63 1016.7
20260830201602 90 209 0.0 0.0 0.00 0.00 0.00 63 1016.9
20260830201102 89 204 0.0 0.0 0.00 0.00 0.00 63 1016.9
20260830200558 89 206 0.0 0.0 0.00 0.00 0.00 64 1016.9
20260830200057 89 205 0.0 0.0 0.00 0.00 0.00 64 1016.9
20260830195553 90 215 0.0 0.0 0.00 0.00 0.00 64 1017.3
20260830195050 89 217 0.0 0.0 0.00 0.00 0.00 67 1017.3
20260830194551 88 204 0.0 0.0 0.00 0.00 0.00 64 1017.3
20260830194045 88 202 0.0 0.0 0.00 0.00 0.00 65 1017.4
20260830193544 88 201 0.0 0.0 0.00 0.00 0.00 63 1017.5
20260830193040 88 205 0.0 0.0 0.00 0.00 0.00 64 1017.4
20260830192536 88 192 0.0 0.0 0.00 0.00 0.00 65 1017.5
20260830192035 87 207 0.0 0.0 0.00 0.00 0.00 67 1017.8
20260830191531 88 207 0.0 0.0 0.00 0.00 0.00 65 1017.4
20260830191026 87 178 0.0 0.0 0.00 0.00 0.00 66 1017.7
20260830190521 87 195 0.0 0.0 0.00 0.00 0.00 67 1017.8
20260830190016 87 196 0.0 0.0 0.00 0.00 0.00 66 1017.9
20260830185510 87 198 0.0 0.0 0.00 0.00 0.00 69 1018.0
20260830185006 87 203 0.0 0.0 0.00 0.00 0.00 67 1018.0
20260830184505 87 214 0.0 0.0 0.00 0.00 0.00 71 1018.2
20260830183959 87 221 0.0 0.0 0.00 0.00 0.00 69 1018.2
20260830183459 87 206 0.0 0.0 0.00 0.00 0.00 69 1018.2
20260830182954 87 207 0.0 0.0 0.00 0.00 0.00 71 1018.2
20260830182450 87 207 0.0 0.0 0.00 0.00 0.00 72 1018.2
20260830181946 86 200 0.0 0.0 0.00 0.00 0.00 74 1018.2
20260830181442 86 216 0.0 0.0 0.00 0.00 0.00 72 1018.5
20260830180936 86 207 0.0 0.0 0.00 0.00 0.00 71 1018.5
20260830180436 87 213 0.0 0.0 0.00 0.00 0.00 72 1018.6
20260830175935 86 203 0.0 0.0 0.00 0.00 0.00 72 1018.8
20260830175434 86 209 0.0 0.0 0.00 0.00 0.00 73 1018.5
20260830174925 86 213 0.0 0.0 0.00 0.00 0.00 74 1018.5
20260830174420 86 211 0.0 0.0 0.00 0.00 0.00 74 1018.5
20260830173915 86 206 0.0 0.0 0.00 0.00 0.00 72 1018.5
20260830173411 86 213 0.0 0.0 0.00 0.00 0.00 73 1018.6
20260830172907 86 196 0.0 0.0 0.00 0.00 0.00 72 1018.6
20260830172403 86 206 0.0 0.0 0.00 0.00 0.00 72 1018.9
20260830171858 86 212 0.0 0.0 0.00 0.00 0.00 73 1018.8
20260830171354 85 203 0.0 0.0 0.00 0.00 0.00 77 1018.9
20260830170848 84 203 0.0 0.0 0.00 0.00 0.00 79 1019.1
20260830170348 84 201 0.0 0.0 0.00 0.00 0.00 78 1019.1
20260830165846 84 222 0.0 0.0 0.00 0.00 0.00 76 1019.2
20260830165343 85 210 0.0 0.0 0.00 0.00 0.00 74 1019.2
20260830164839 86 173 0.9 1.7 0.00 0.00 0.00 74 1019.0
20260830164334 86 199 0.0 0.0 0.00 0.00 0.00 75 1019.5
20260830163831 86 190 0.0 0.0 0.00 0.00 0.00 75 1019.4
20260830163326 85 182 0.9 0.9 0.00 0.00 0.00 76 1019.4
20260830162821 85 203 0.0 0.0 0.00 0.00 0.00 76 1019.4
20260830162317 85 214 0.0 0.0 0.00 0.00 0.00 77 1019.2
20260830161812 85 206 0.0 0.0 0.00 0.00 0.00 77 1019.3
20260830161311 84 222 0.0 0.0 0.00 0.00 0.00 76 1019.3
20260830160806 84 187 0.0 0.0 0.00 0.00 0.00 78 1019.4
20260830160301 84 190 0.0 0.0 0.00 0.00 0.00 79 1019.3
20260830155757 84 197 0.0 0.0 0.00 0.00 0.00 79 1019.5
20260830155254 84 202 0.0 0.0 0.00 0.00 0.00 77 1019.2
20260830154753 83 200 0.0 0.0 0.00 0.00 0.00 79 1019.4
20260830154249 83 197 0.0 0.0 0.00 0.00 0.00 80 1019.6
20260830153746 83 207 0.0 0.0 0.00 0.00 0.00 80 1019.2
20260830153241 82 204 0.0 0.0 0.00 0.00 0.00 81 1019.2
20260830152739 82 201 0.0 0.0 0.00 0.00 0.00 80 1019.1
20260830152234 82 204 0.0 0.0 0.00 0.00 0.00 82 1019.3
20260830151733 82 211 0.0 0.0 0.00 0.00 0.00 82 1019.2
20260830151233 81 198 0.0 0.0 0.00 0.00 0.00 82 1019.4
20260830150728 81 212 0.0 0.0 0.00 0.00 0.00 82 1019.4
20260830150228 81 224 0.0 0.0 0.00 0.00 0.00 82 1019.4
20260830145723 81 233 0.0 0.0 0.00 0.00 0.00 82 1019.4
20260830145218 81 216 0.0 0.0 0.00 0.00 0.00 83 1019.3
20260830144713 80 204 0.0 0.0 0.00 0.00 0.00 83 1019.3
20260830144209 80 200 0.0 0.0 0.00 0.00 0.00 84 1019.2
20260830143705 80 192 0.9 1.7 0.00 0.00 0.00 85 1019.1
20260830143202 79 209 0.0 0.0 0.00 0.00 0.00 85 1019.4
20260830142658 79 199 0.0 0.0 0.00 0.00 0.00 86 1019.4
20260830142153 78 207 0.0 0.0 0.00 0.00 0.00 88 1019.4
20260830141648 78 190 0.0 0.0 0.00 0.00 0.00 89 1019.2
20260830141143 77 193 0.0 0.0 0.00 0.00 0.00 89 1019.1
20260830140638 77 200 0.0 0.0 0.00 0.00 0.00 90 1019.1
20260830140139 77 202 0.0 0.0 0.00 0.00 0.00 90 1019.2
20260830135634 76 201 0.0 0.0 0.00 0.00 0.00 90 1019.2
20260830135128 76 201 0.0 0.0 0.00 0.00 0.00 90 1019.1
20260830134625 75 202 0.0 0.0 0.00 0.00 0.00 91 1019.1
20260830134120 75 202 0.0 0.0 0.00 0.00 0.00 91 1019.1
20260830133615 74 202 0.0 0.0 0.00 0.00 0.00 92 1019.1
20260830133110 74 202 0.0 0.0 0.00 0.00 0.00 92 1019.0
20260830132607 73 202 0.0 0.0 0.00 0.00 0.00 93 1019.2
20260830132102 73 202 0.0 0.0 0.00 0.00 0.00 93 1019.2
20260830131601 73 201 0.0 0.0 0.00 0.00 0.00 93 1019.3
20260830131055 73 201 0.0 0.0 0.00 0.00 0.00 93 1019.3
20260830130550 73 201 0.0 0.0 0.00 0.00 0.00 93 1019.2
20260830130046 72 200 0.0 0.0 0.00 0.00 0.00 93 1019.2
20260830125540 72 204 0.0 0.0 0.00 0.00 0.00 93 1019.1
20260830125039 72 205 0.0 0.0 0.00 0.00 0.00 94 1019.3
20260830124538 71 205 0.0 0.0 0.00 0.00 0.00 94 1019.1
20260830124034 71 205 0.0 0.0 0.00 0.00 0.00 94 1019.1
20260830123531 71 205 0.0 0.0 0.00 0.00 0.00 95 1019.1
20260830123026 70 203 0.0 0.0 0.00 0.00 0.00 96 1019.0
20260830122522 69 211 0.0 0.0 0.00 0.00 0.00 96 1018.9
20260830122018 69 212 0.0 0.0 0.00 0.00 0.00 95 1018.9
20260830121514 69 212 0.0 0.0 0.00 0.00 0.00 96 1018.7
20260830121013 69 212 0.0 0.0 0.00 0.00 0.00 97 1018.8
20260830120509 69 212 0.0 0.0 0.00 0.00 0.00 97 1018.9
20260830120006 68 222 0.0 0.0 0.00 0.00 0.00 97 1018.8
20260830115501 67 222 0.0 0.0 0.00 0.00 0.00 96 1018.7
20260830114956 68 223 0.0 0.0 0.00 0.00 0.00 97 1018.5
20260830114453 68 223 0.0 0.0 0.00 0.00 0.00 97 1018.6
20260830113952 68 223 0.0 0.0 0.00 0.00 0.00 97 1018.4
20260830113447 67 223 0.0 0.0 0.00 0.00 0.00 97 1018.5
20260830112943 67 223 0.0 0.0 0.00 0.00 0.00 97 1018.3
20260830112439 67 223 0.0 0.0 0.00 0.00 0.00 97 1018.4
20260830111935 68 223 0.0 0.0 0.00 0.00 0.00 97 1018.3
20260830111430 67 223 0.0 0.0 0.00 0.00 0.00 97 1017.9
20260830110926 67 223 0.0 0.0 0.00 0.00 0.00 97 1018.3
20260830110421 67 223 0.0 0.0 0.00 0.00 0.00 97 1018.3
20260830105920 68 224 0.0 0.0 0.00 0.00 0.00 97 1018.3
20260830105417 67 223 0.0 0.0 0.00 0.00 0.00 96 1018.3
20260830104912 67 224 0.0 0.0 0.00 0.00 0.00 97 1018.3
20260830104408 67 224 0.0 0.0 0.00 0.00 0.00 97 1018.2
20260830103903 67 223 0.0 0.0 0.00 0.00 0.00 96 1018.2
20260830103358 67 224 0.0 0.0 0.00 0.00 0.00 96 1018.1
20260830102856 67 222 0.0 0.0 0.00 0.00 0.00 96 1018.2
20260830102352 68 224 0.0 0.0 0.00 0.00 0.00 96 1018.2
20260830101849 67 221 0.0 0.0 0.00 0.00 0.00 96 1017.9
20260830101348 68 221 0.0 0.0 0.00 0.00 0.00 96 1018.1
20260830100843 67 220 0.0 0.0 0.00 0.00 0.00 96 1018.0
20260830100342 68 237 0.0 0.0 0.00 0.00 0.00 96 1018.1
20260830095841 68 233 0.0 0.0 0.00 0.00 0.00 96 1018.0
20260830095337 68 230 0.0 0.0 0.00 0.00 0.00 96 1017.9
20260830094833 68 228 0.0 0.0 0.00 0.00 0.00 96 1018.0
20260830094329 68 231 0.0 0.0 0.00 0.00 0.00 95 1018.0
20260830093824 68 217 0.0 0.0 0.00 0.00 0.00 95 1018.1
20260830093319 68 216 0.0 0.0 0.00 0.00 0.00 95 1017.9
20260830092814 68 217 0.0 0.0 0.00 0.00 0.00 95 1017.8
20260830092310 68 216 0.0 0.0 0.00 0.00 0.00 95 1018.0
20260830091807 68 213 0.0 0.0 0.00 0.00 0.00 95 1017.9
20260830091306 68 230 0.0 0.0 0.00 0.00 0.00 95 1017.9
20260830090805 68 224 0.0 0.0 0.00 0.00 0.00 95 1018.0
20260830090301 68 222 0.0 0.0 0.00 0.00 0.00 95 1017.9
20260830085801 68 224 0.0 0.0 0.00 0.00 0.00 95 1017.7
20260830085256 68 216 0.0 0.0 0.00 0.00 0.00 95 1018.0
20260830084751 68 215 0.0 0.0 0.00 0.00 0.00 95 1017.8
20260830084247 68 211 0.0 0.0 0.00 0.00 0.00 94 1017.8
20260830083742 68 221 0.0 0.0 0.00 0.00 0.00 94 1017.4
20260830083238 69 221 0.0 0.0 0.00 0.00 0.00 93 1017.7
20260830082737 69 240 0.0 0.0 0.00 0.00 0.00 93 1017.9
20260830082233 69 227 0.0 0.0 0.00 0.00 0.00 92 1017.9
20260830081728 69 227 0.0 0.0 0.00 0.00 0.00 92 1017.9
20260830081228 70 228 0.0 0.0 0.00 0.00 0.00 90 1017.7
20260830080722 70 229 0.0 0.0 0.00 0.00 0.00 90 1017.7
20260830080218 70 227 0.0 0.0 0.00 0.00 0.00 90 1017.8
20260830075717 69 242 0.0 0.0 0.00 0.00 0.00 91 1017.5
20260830075213 69 224 0.0 0.0 0.00 0.00 0.00 92 1017.5
20260830074708 69 223 0.0 0.0 0.00 0.00 0.00 92 1017.3
20260830074204 69 211 0.0 0.0 0.00 0.00 0.00 92 1017.5
20260830073700 69 211 0.0 0.0 0.00 0.00 0.00 91 1017.4
20260830073156 69 211 0.0 0.0 0.00 0.00 0.00 92 1017.7